Regional Weather Roundup
Issued by NWS

Home | Current Version | Previous Version | Graphics & Text | Print | Product List | Glossary On
Versions: 1 2 3 4 5 6 7 8 9 10 11 12 13 14 15 16 17 18 19 20 21 22 23 24 25 26 27 28 29 30 31 32 33 34 35 36 37 38 39 40 41 42 43 44 45 46 47 48 49 50
000
ASUS43 KLMK 071910
RWRKY
KENTUCKY REGIONAL WEATHER ROUNDUP
NATIONAL WEATHER SERVICE LOUISVILLE KY
300 PM EDT TUE JUL 07 2015

NOTE "FAIR" INDICATES FEW OR NO CLOUDS BELOW 12,000 FEET
WITH NO SIGNIFICANT WEATHER AND/OR OBSTRUCTIONS TO VISIBILITY.

KYZ001>023-026-027-061>063-070>075-072000-
WESTERN AND SOUTH CENTRAL KENTUCKY

CITY           SKY/WX    TMP DP  RH WIND       PRES   REMARKS
PADUCAH        CLOUDY    83  74  74 SW12G18   29.97F
HENDERSON      CLOUDY    73  70  88 SW6       29.99S
OWENSBORO      HVY RAIN  75  73  94 W13       30.01R FOG
HOPKINSVILLE   CLOUDY    87  73  62 SW18G26   30.02S HX  93
BOWLING GREEN  CLOUDY    88  69  53 SW16      30.03S HX  92
GLASGOW        CLOUDY    84  70  62 SW16G23   30.04R
$$

KYZ024-025-028>034-038-045-046-053-072000-
NORTH CENTRAL KENTUCKY

CITY           SKY/WX    TMP DP  RH WIND       PRES   REMARKS
LOUISVILLE/SDF LGT RAIN  78  74  87 S9        29.97F
LOUISVILLE/LOU CLOUDY    78  74  87 S7        29.98F
FORT KNOX      TSTM      72  70  94 S9        30.01R
$$

KYZ035>037-039>044-047>052-055>060-089>105-072000-
NORTHEAST KENTUCKY

CITY           SKY/WX    TMP DP  RH WIND       PRES   REMARKS
LEXINGTON      CLOUDY    78  72  81 SW9       30.02F
COVINGTON      CLOUDY    78  71  79 SW13G24   29.95F
FRANKFORT      LGT RAIN  75  71  87 SW8       30.00F
$$

KYZ054-064>069-076>088-106>120-072000-
SOUTHEAST KENTUCKY

CITY           SKY/WX    TMP DP  RH WIND       PRES   REMARKS
JACKSON        CLOUDY    79  72  79 VRB3      30.07F
LONDON         PTSUNNY   87  66  49 SW12G22   30.07F
SOMERSET       CLOUDY    84  70  61 SW13G18   30.07F
MIDDLESBORO    MOSUNNY   85  71  62 S8G16     30.09F HX  91
MONTICELLO     MOCLDY    88  73  60 SW13      30.09F HX  95
$$



USA.gov is the U.S. government's official web portal to all federal, state and local government web resources and services.